This is the latest recevied weather packets stored in our database for station/object DF5HRN-13. If no packets are shown the sender has not sent any weather packets the latest 10 day(s).
| Time | Temp. | Humidity | Pressure | Rain* | Wind** | Luminosity | Snow |
|---|---|---|---|---|---|---|---|
| 1777187705 | 13.33° C | 40% | 1031 hPa | - | - | - | - |
| 1777186805 | 11.67° C | 40% | 1031 hPa | - | - | - | - |
| 1777185905 | 11.67° C | 39% | 1031 hPa | - | - | - | - |
| 1777185005 | 10.56° C | 37% | 1031 hPa | - | - | - | - |
| 1777184105 | 10.56° C | 36% | 1031 hPa | - | - | - | - |
| 1777183205 | 10.56° C | 36% | 1031 hPa | - | - | - | - |
| 1777182305 | 10° C | 37% | 1030 hPa | - | - | - | - |
| 1777181405 | 10° C | 38% | 1030 hPa | - | - | - | - |
| 1777180505 | 9.44° C | 43% | 1030 hPa | - | - | - | - |
| 1777179605 | 8.89° C | 44% | 1030 hPa | - | - | - | - |
| 1777178705 | 8.33° C | 47% | 1029 hPa | - | - | - | - |
| 1777177805 | 7.78° C | 53% | 1029 hPa | - | - | - | - |
| 1777176905 | 7.22° C | 54% | 1029 hPa | - | - | - | - |
| 1777176005 | 7.22° C | 54% | 1029 hPa | - | - | - | - |
| 1777175105 | 7.22° C | 54% | 1028 hPa | - | - | - | - |
| 1777174205 | 7.78° C | 54% | 1028 hPa | - | - | - | - |
| 1777173305 | 7.78° C | 53% | 1028 hPa | - | - | - | - |
| 1777172405 | 8.33° C | 53% | 1028 hPa | - | - | - | - |
| 1777171505 | 8.89° C | 53% | 1028 hPa | - | - | - | - |
| 1777170605 | 8.89° C | 53% | 1028 hPa | - | - | - | - |
| 1777169705 | 8.89° C | 53% | 1027 hPa | - | - | - | - |
| 1777168805 | 9.44° C | 53% | 1027 hPa | - | - | - | - |
| 1777167905 | 9.44° C | 52% | 1027 hPa | - | - | - | - |
| 1777167005 | 9.44° C | 52% | 1027 hPa | - | - | - | - |
| 1777166105 | 9.44° C | 52% | 1027 hPa | - | - | - | - |
* Rain since midnight (hover to see other rain measurements)
** Current wind speed in m/s (hover to see current wind gust speed)